{"data":{"norad_id":51464,"epoch":"2026-05-25T03:12:27.707328Z","epoch_age_seconds":59426,"freshness":"FRESH","line1":"1 51464U 22010J   26145.13365402  .00003601  00000+0  24432-3 0  9994","line2":"2 51464  53.2138 295.9500 0001701  89.9336 270.1851 15.08822086238862","mean_motion":15.08822086,"eccentricity":0.0001701,"inclination_deg":53.2138,"raan_deg":295.95,"arg_perigee_deg":89.9336,"mean_anomaly_deg":270.1851,"bstar":0.00024432,"rev_number":23886,"period_min":95.438687792379,"perigee_km":538.62140466902,"apogee_km":540.97488620549,"semimajor_km":6917.9351454373,"source":"CELESTRAK","updated_at":"2026-05-25T13:38:16.918291Z"}}